Voltar ao catálogo

YAOGAN-30 V

AtivoMilitarVLEO
NORAD 46808·PAYLOAD·🇨🇳 China

Lançado Oct 26, 2020 de Xichang Satellite Launch Center

Loading…

Próximas Passagens (próximas 24 horas)

TLE

AtualizadoSource: Space-Track

Época: Sep 14, 2026, 23:23 UTC

1 46808U 20076B   26257.97449574  .00002104  00000-0  15532-3 0  9998
2 46808  34.9940 263.5879 0000415  21.9369 338.1358 15.03014759321740

Acompanhe YAOGAN-30 V em tempo real com AllMySat

Download on the App Store